This demonstration page uses our WeatherBlox Daily Observations layout. Learn more.

Left ArrowRight Arrow

Hourly Observations for August 25, 2015

Temp ( °F °C ) Dew Point ( °F °C ) Humidity (%) Winds ( mph kmh ) Pressure ( in mb ) Visibility ( mi km ) Precip ( " mm )
12:53 am 00:53 Clear 77 25 61 16.1 58 58 E 7 11 29.98 1015 10 16 0.00 0.00
1:53 am 01:53 Clear 76 24.4 61 16.1 60 60 E 7 11 29.98 1015 10 16 0.00 0.00
2:53 am 02:53 Clear 74 23.3 62 16.7 67 67 E 6 9 29.96 1015 10 16 0.00 0.00
3:53 am 03:53 Clear 73 22.8 62 16.7 69 69 E 7 11 29.96 1015 10 16 0.00 0.00
4:53 am 04:53 Clear 72 22.2 61 16.1 68 68 E 7 11 29.97 1015 10 16 0.00 0.00
5:53 am 05:53 Clear 71 21.7 62 16.7 73 73 ENE 6 9 29.98 1015 10 16 0.00 0.00
6:53 am 06:53 Clear 70 21.1 61 16.1 73 73 E 6 9 29.99 1016 10 16 0.00 0.00
7:53 am 07:53 Sunny 74 23.3 59 15 60 60 ESE 8 13 30.00 1016 10 16 0.00 0.00
8:53 am 08:53 Sunny 79 26.1 59 15 50 50 SE 10 17 30.02 1017 10 16 0.00 0.00
9:53 am 09:53 Sunny 84 28.9 59 15 43 43 SE 12 19 30.02 1017 10 16 0.00 0.00
10:53 am 10:53 Sunny 87 30.6 59 15 39 39 SSE 10 17 30.03 1017 10 16 0.00 0.00
11:53 am 11:53 Sunny 92 33.3 58 14.4 32 32 SSE 12 19 30.04 1017 10 16 0.00 0.00
12:53 pm 12:53 Sunny 94 34.4 56 13.3 28 28 SSE 9 15 30.02 1017 10 16 0.00 0.00
1:53 pm 13:53 Sunny 96 35.6 55 12.8 25 25 SSE 12 19 29.99 1016 10 16 0.00 0.00
2:53 pm 14:53 Sunny 96 35.6 56 13.3 26 26 E 6 9 29.96 1015 10 16 0.00 0.00
3:53 pm 15:53 Mostly Sunny 95 35 54 12.2 25 25 SSE 9 15 29.94 1014 10 16 0.00 0.00
4:53 pm 16:53 Mostly Sunny 98 36.7 54 12.2 23 23 SSE 9 15 29.91 1013 10 16 0.00 0.00
5:53 pm 17:53 Sunny 96 35.6 52 11.1 23 23 ESE 12 19 29.89 1012 10 16 0.00 0.00
6:53 pm 18:53 Sunny 97 36.1 51 10.6 21 21 SE 9 15 29.89 1012 10 16 0.00 0.00
7:53 pm 19:53 Sunny 93 33.9 56 13.3 29 29 ESE 16 26 29.90 1013 10 16 0.00 0.00
8:53 pm 20:53 Clear 89 31.7 56 13.3 33 33 ESE 12 19 29.92 1013 10 16 0.00 0.00
9:53 pm 21:53 Clear 85 29.4 59 15 42 42 SE 15 24 29.96 1014 10 16 0.00 0.00
10:53 pm 22:53 Clear 83 28.3 60 15.6 46 46 SE 8 13 29.98 1015 10 16 0.00 0.00
11:53 pm 23:53 Mostly Clear 80 26.7 60 15.6 51 51 SE 10 17 30.00 1016 10 16 0.00 0.00

Powered by AerisWeather